Погода в Непе

Россия / Иркутская область     59˚14′34″N   108˚13′53″E
темп.,
°C
ветер,
м/с
пор.,
м/с
влажн.,
%
обл.,
%
осадки,
мм/ч
давл.,
гПа
погр.,
м
16 января, сб
сб1623:00−36˚з229479 0.0 103033
02:00−34˚з289389 0.0 1031451
05:00−38˚з229494 0.0 103230
08:00−37˚зсз269697 0.0 1034385
11:00−38˚сз2595100 0.0 1036342
14:00−39˚сз2492100 0.1 1037357
17:00−43˚сз229561 0.0 104018
20:00−45˚сз119756 0.0 104218
17 января, вс
вс1723:00−46˚з119854 0.0 104318
02:00−47˚юз019753 0.0 104218
05:00−47˚ю119751 0.0 104218
08:00−46˚ююв129651 0.0 104218
11:00−44˚ююв119551 0.0 104262
14:00−40˚ююв129153 0.0 1039213
17:00−43˚юв129629 0.0 103918
20:00−43˚ююв129514 0.0 103718
18 января, пн
пн1823:00−43˚юв12940 0.0 103518
02:00−42˚юв22920 0.0 103218
05:00−40˚юв229067 0.0 102921
08:00−38˚юв228983 0.0 102574
11:00−34˚юв2583100 0.0 1020197
14:00−30˚юв3696100 0.3 1016302
17:00−28˚ююв3897100 0.4 1013327
20:00−29˚юв2599100 0.8 1011202
19 января, вт
вт1923:00−28˚юв1299100 0.3 100943
02:00−27˚вюв1199100 0.4 100735
05:00−27˚ссв0099100 0.2 100719
08:00−27˚сз1299100 0.3 100821
11:00−27˚сз2497100 0.1 1011258
14:00−26˚зсз2494100 0.3 1013377
17:00−27˚ссз1299100 0.1 101627
20:00−28˚с1199100 0.3 101720
20 января, ср
ср2023:00−29˚св1198100 0.1 101819
02:00−29˚всв0198100 0.1 102019
05:00−29˚юв0098100 0.1 102019
08:00−28˚ююв0099100 0.1 102119
11:00−27˚в0098100 0.0 102037
14:00−25˚ссв1095100 0.1 1020205
17:00−27˚с2299100 0.1 102058
20:00−29˚с229898 0.2 102232